Погода в Архаре

Погода в Архаре : погода сейчас, прогноз погоды и архив. Всё, что Вы хотите узнать о погоде в Архаре!

Хотите узнать прогноз погоды в Архаре? Тогда Вам сюда: Погода в Архаре

Поиск расширенной информации на нашем сайте:

Другие новости

Новости СМИ2

Главная страница сайта

Новости сайта

03.07.2017

Напоминаем, что на нашем специализированном сайте Метеоцентр.Азия вы можете получить высокодетализированные автоматические прогнозы погоды по пунктам России, СНГ и мира в авиационном формате (включающие направление и скорость ветра, видимость, явления погоды, количество и форму облачности, нижнюю и верхнюю границу облачности).

Рекомендуем: Описание офигенное радио на нашем сайте.

Погода в Архаре - сегодня

Время (UTC), дата Ветер
(°,м/с) 
Видим.   Явления Облачность Т
(°С)
Тd
(°С)
f(%) Тe
(°С)
Pmin
(гПа)
dP
(гПа)
Po
(мм)
O2
(г/м3)
Тmin Tmax R s Состояние
почвы
06 18.06.18 170 (Ю) 4000 м  слаб. ливневой дождь  10/10 600 м кучево-дожд. 
[Cb cap]
+19.3 +15.7 80 +31  1000.6  -1.6  739  275           
09 18.06.18 тихо ()   4000 м  слаб. ливневой дождь  10/10 600 м кучево-дожд. 
[Cb cap]
+17.1 +15 87 +26  998.5  -2.2  737  276           
12 18.06.18 040 (СВ) 4000 м  слаб. ливневой дождь  10/10 600 м кучево-дожд. 
[Cb cap]
+15.8 +14.2 90 +25  996.8  -1.8  736  277    +19.4     
15 18.06.18 010 (С) 4000 м  слаб. ливневой дождь  10/10 600 м кучево-дожд. 
[Cb cap]
+15 +13.8 93 +22  994.1  -2.7  734  277           
18 18.06.18 340 (С) 4000 м  слаб. ливневой дождь  10/10 600 м кучево-дожд. 
[Cb cap]
+14.8 +13.5 92 +22  992.8  -1.2  733  277           
21 18.06.18 310 (СЗ) 4000 м  слаб. ливневой дождь  10/10 600 м кучево-дожд. 
[Cb cap]
+14 +12.8 92 +21  994.3  1.4  734  279           
00 19.06.18 280 (З) 4000 м  слаб. ливневой дождь  10/10 600 м кучево-дожд. 
[Cb cap]
+14.2 +12.9 92 +21  996.1  1.9  735  279  +14      мокрая 
03 19.06.18 270 (З) 20000 м  {ливн. осадки}  10/8 600 м кучево-дожд., средняя 
[Cb cap|Ac und]
+16.2 +11.9 76 +21  997.6  1.5  736  278           
06 19.06.18 320 (СЗ) 20000 м  {ливн. осадки}  3/3 1000 м 
[Cu med, cong]
+18.7 +11.7 64 +23  998.1  0.7  737  276           
09 19.06.18 340 (С) 20000 м    3/0 верхняя 
[Ci fib]
+19.1 +11.2 60 +23  998.8  0.6  737  276           
15 19.06.18 300 (СЗ) 20000 м    ясно 
+8.1 +6.8 91 +9  1000.8  0.2  738  288           
18 19.06.18 010 (С) 20000 м    ясно 
+7.4 +6.4 93 +8  1001.1  0.2  739  289           
21 19.06.18 тихо ()   20000 м    3/0 верхняя 
[Ci fib]
+9.7 +8.8 94 +10  1001.4  0.5  739  286           
00 20.06.18 290 (З) 20000 м    10/4 1000 м верхняя 
[Cu med, cong|Ci fib]
+13.4 +8.5 72 +14  1001  -0.2  739  282  +7.4        мокрая 
03 20.06.18 320 (СЗ) 20000 м    6/6 1000 м 
[Sc]
+15.7 +8.6 63 +16  1000.7  -0.2  739  280           
06 20.06.18 340 (С) 20000 м    10/10 1000 м 
[Sc]
+14.9 +8.3 65 +15  1000.4  -0.4  738  281           
09 20.06.18 350 (С) 20000 м    9/9 1000 м кучево-дожд. 
[Cb cap]
+14 +8 67 +14  1000.3  -0.1  738  282           
15 20.06.18 010 (С) 20000 м    ясно 
+6.7 +5.6 93 +8  1000.6  -0.3  738  289           
18 20.06.18 360 (С) 20000 м    6/3 1000 м кучево-дожд., средняя 
[Cb cap|Ac trans]
+6.8 +5.8 93 +8  999.9  -0.7  738  289           
21 20.06.18 тихо ()   20000 м    8/0 средняя 
[Ac trans]
+8.3 +7.3 93 +8  1000.2  0.5  738  287           
00 21.06.18 290 (З) 20000 м    8/0 средняя 
[Ac trans]
+16.1 +10.7 70 +18  999.7  -0.1  738  279  +6.3        мокрая 
03 21.06.18 340 (С) 20000 м    9/6 600 м кучево-дожд., средняя 
[Cb cap|Ac trans]
+18 +11 64 +22  998.8  -0.8  737  277           
06 21.06.18 340 (С) 20000 м    3/3 1000 м 
[Cu med, cong]
+21.9 +9.4 45 +23  997.6  -1  737  273           
09 21.06.18 310 (СЗ) 20000 м    3/3 1000 м 
[Cu med, cong]
+23.8 +10.9 44 +27  996.8  -0.7  736  271           
15 21.06.18 180 (Ю) 20000 м    ясно 
+8.9 +7.7 92 +10  998.5  0.1  737  286           
Время (UTC), дата Ветер
(°,м/с) 
Видим.   Явления Облачность Т
(°С)
Тd
(°С)
f(%) Тe
(°С)
Pmin
(гПа)
dP
(гПа)
Po
(мм)
O2
(г/м3)
Тmin Tmax R s Состояние
почвы

Для получения пояснительной информации подведите курсор к названию столбца.

ПОГОДА в Архаре - архив

Всё, что Вы хотите узнать о погоде в Архаре - удобно и подробно!

Выберите нужную дату (начиная с 1 января 2015* года) и нажмите кнопку "Найти".
Будут отображены архивные сводки погоды по пункту Архара, начиная с указанной даты.


Отображать данные в формате CSV (для использования в таблицах Excel)


Внимание! Наш архив погоды предназначен исключительно для личного некоммерческого использования в познавательных целях. Если Вам необходимы официальные справки о состоянии погоды (для производственных, юридических, коммерческих и т.п. целей), обращайтесь в органы Росгидромета.

*Примечание: данная дата относится к архиву по метеостанциям СССР (Россия, СНГ, Балтия).
Архив по метеостанциям Зарубежной Европы и Азии (кроме Китая) хранится 10 дней, по другим регионам земного шара (Китай, Африка, Америка, Австралия, Океания) - 1 день.

Архара - район местоположения метеостанции


Название, широта, долгота, высота метеостанции:
Архара 49.4°ш. 130.1°д. 135 м над ур. моря [Российская Федерация]

Дополнительная информация

В oтличие oт бoльшинства пoгoдных сайтoв мы публикуем пoдрoбную метеoинфoрмацию в детальнoм прoфессиoнальнoм фoрмате.

Характеристики температуры и влажнoсти вoздуха измеряются на высoте 2 м в тени вдали oт зданий и деревьев.
Скoрoсть ветра измеряется на высoте 10 м (на урoвне рoста челoвека скoрoсть ветра ниже в 1.5-2 раза). Если метеoстанция нахoдится в гoрoде или в лесу, тo скoрoсть ветра занижена на 2-4 м/с пo сравнению с oткрытым местoм. Скoрoсть ветра над акватoриями крупных рек и oзёр, а также на вершинах хoлмoв на 2-5 м/с выше, чем в oбычных услoвиях.
Атмoсфернoе давление в разных тoчках местнoсти мoжет значительнo oтличаться oт давления на метеoстанции, в зависимoсти oт услoвий рельефа (при пoдъёме на 10 м давление пoнижается примернo на 1 мм рт.ст.).